Weather Roundup
Issued by NWS Springfield, MO

Home | Current Version | Previous Version | Text Only | Print | Product List | Glossary On
Versions: 1 2 3 4 5 6 7 8 9 10 11 12 13 14 15 16 17 18 19 20 21 22 23 24 25 26 27 28 29 30 31 32 33 34 35 36 37 38 39 40 41 42 43 44 45 46 47 48 49 50
072
NZUS99 KSGF 281257
HRRSGF

HOURLY WEATHER
NATIONAL WEATHER SERVICE SPRINGFIELD MO
800 AM CDT FRI APR 28 2017

......SGF CWA......

CITY           SKY/WX    TMP DP  RH WIND       PRES   REMARKS
SPRINGFIELD    LGT RAIN  55  54  96 E12       29.72F
JOPLIN         LGT RAIN  59  55  87 E9        29.65F
WEST PLAINS    CLOUDY    56  51  84 E5        29.82R
BRANSON        CLOUDY    54  52  94 NE6       29.74F

......SURROUNDING SGF CWA......

CITY           SKY/WX    TMP DP  RH WIND       PRES   REMARKS
CHANUTE        LGT RAIN  58  53  84 SE17G24   29.62R
PARSONS        LGT RAIN  57  54  89 VRB6      29.65R
COFFEYVILLE    CLOUDY    58  55  90 SE7       29.64R
EMPORIA        CLOUDY    54  52  93 VRB5      29.61R
HARRISON AR    CLOUDY    54  53  97 E8        29.73F

......KANSAS AND MISSOURI......

CITY           SKY/WX    TMP DP  RH WIND       PRES   REMARKS
KANSAS CTY INT CLOUDY    51  50  96 E13       29.66S
SEDALIA        RAIN      53  53 100 SE16      29.72R FOG
ST JOSEPH      RAIN      49  49 100 E12       29.69S FOG
ST LOUIS       NOT AVBL
WICHITA        CLOUDY    54  52  93 CALM      29.60R
TOPEKA         CLOUDY    52  52 100 E8        29.64R
OLATHE         CLOUDY    51  51 100 E8        29.67R

......TENNESSEE......

CITY           SKY/WX    TMP DP  RH WIND       PRES   REMARKS
MEMPHIS        NOT AVBL
NASHVILLE      PTSUNNY   59  54  83 SE5       29.92F

......ARKANSAS.......

CITY           SKY/WX    TMP DP  RH WIND       PRES   REMARKS
FAYETTEVILLE   CLOUDY    62  56  80 SE12G25   29.65S
FT SMITH       PTSUNNY   60  53  77 E14       29.66F
LITTLE ROCK    CLOUDY    59  58  96 E9        29.76F

......OKLAHOMA.......

CITY           SKY/WX    TMP DP  RH WIND       PRES   REMARKS
TULSA          CLOUDY    59  56  89 SE6       29.61R
PONCA CITY     CLOUDY    57  52  83 SE18      29.57F
MCALESTER      CLOUDY    65  58  78 S12G18    29.61F
OKLAHOMA CITY  CLOUDY    58  55  90 S7        29.59R

......IOWA............

CITY           SKY/WX    TMP DP  RH WIND       PRES   REMARKS
DES MOINES     NOT AVBL
QUAD CITIES    CLOUDY    44  34  67 E8        29.91R

......ILLINOIS........

CITY           SKY/WX    TMP DP  RH WIND       PRES   REMARKS
QUINCY         NOT AVBL
CHICAGO        CLOUDY    44  32  62 CALM      29.93S




USA.gov is the U.S. government's official web portal to all federal, state and local government web resources and services.